Regional Weather Roundup
Issued by NWS

Home | Current Version | Previous Version | Text Only | Print | Product List | Glossary On
Versions: 1 2 3 4 5 6 7 8 9 10 11 12 13 14 15 16 17 18 19 20 21 22 23 24 25 26 27 28 29 30 31 32 33 34 35 36 37 38 39 40 41 42 43 44 45 46 47 48 49 50
000
ASUS44 KJAN 241310
RWRMS

MISSISSIPPI HOURLY WEATHER ROUNDUP
NATIONAL WEATHER SERVICE JACKSON MS
700 AM CST SAT FEB 24 2018

NOTE: "FAIR: INDICATES FEW OR NO CLOUDS BELOW 12,000 FEET WITH NO
SIGNIFICANT WEATHER AND/OR OBSTRUCTIONS TO VISIBILITY.

MSZ001>002-007>008-010>013-018>021-025>028-034>036-241400-
NORTHWEST MISSISSIPPI

CITY           SKY/WX    TMP DP  RH WIND       PRES   REMARKS
BATESVILLE       N/A    N/A N/A N/A MISG        N/A
CLARKSDALE     CLOUDY    66  66 100 S8        30.03S
CLEVELAND      RAIN      66  66 100 S12       30.03S
GREENWOOD      CLOUDY    68  66  93 S10       30.06R
GREENVILLE     CLOUDY    67  65  93 S13       30.02S
OLIVE BRANCH   CLOUDY    64  64 100 S12G21    30.02
TUNICA           N/A     64  63  94 S12       30.03S
WINONA         CLOUDY    66  66 100 S8        30.08R
$$

MSZ003>006-009-014>017-022>024-029>033-037>039-241400-
NORTHEAST MISSISSIPPI

CITY           SKY/WX    TMP DP  RH WIND       PRES   REMARKS
ABERDEEN       FAIR      68  68 100 S7        30.10S
COLUMBUS AFB   FAIR      68  68 100 S9        30.09S
CORINTH        CLOUDY    66  64  94 S6        30.06S
GOLDN TRIANGLE CLOUDY    67  66  97 S8        30.11R
STARKVILLE     CLOUDY    64  64 100 S6        30.11R
TUPELO         MOCLDY    67  64  90 SE8       30.08R
$$

MSZ040-058-241400-
CENTRAL MISSISSIPPI

CITY           SKY/WX    TMP DP  RH WIND       PRES   REMARKS
JACKSON INTL   CLOUDY    68  67  96 S8        30.08R
JACKSON HAWKNS CLOUDY    68  68 100 S9        30.09R
MADISON        CLOUDY    66  64  94 S3        30.08R
MERIDIAN KEY   CLOUDY    69  67  93 S7        30.11S
MERIDIAN NAS   CLOUDY    69  67  93 S3        30.12R
RAYMOND        FAIR      68  66  94 S3        30.08R FOG
VICKSBURG VKS    N/A    N/A N/A N/A MISG        N/A
$$

MSZ059>079-241400-
SOUTH MISSISSIPPI

CITY           SKY/WX    TMP DP  RH WIND       PRES   REMARKS
COLUMBIA       CLOUDY    70  68  94 S6G13     30.14S
HATTIESBURG    FAIR      68  68 100 S5        30.12S
LAUREL         CLOUDY    68  68 100 S7        30.11S
MCCOMB         CLOUDY    70  67  90 S9        30.09S
NATCHEZ        CLOUDY    70  68  93 S8        30.07S
PINE BELT      FAIR      68  67  96 SE7       30.12S
$$

MSZ080>082-241400-
COASTAL MISSISSIPPI

CITY           SKY/WX    TMP DP  RH WIND       PRES   REMARKS
BAY ST LOUIS   MOCLDY    68  66  94 CALM      30.11
BILOXI         FAIR      71  68  92 S3        30.12R
PASCAGOULA     FAIR      69  67  93 SE3       30.13R
GULFPORT       CLOUDY    72  70  93 S3        30.11S
$$

LAZ007>009-015>016-023>026-241400-
NORTHEAST LOUISIANA

CITY           SKY/WX    TMP DP  RH WIND       PRES   REMARKS
BASTROP        RAIN      68  67  98 CALM      30.02F
TALLULAH/VBURG CLOUDY    68  68 100 SE8       30.06S
VIDALIA        CLOUDY    67  66  97 SE5       30.05S FOG
$$



USA.gov is the U.S. government's official web portal to all federal, state and local government web resources and services.